User: anonymous   Login
Location: Lawrence Hall of Science
(37.8785°N, 122.2415°W)
Time: 22:20:55
(UTC-08:00)
Language:

Cosmos 2098 Rocket - Orbit

View from above orbital plane
View from above orbital plane
View from above satellite
View from above satellite

Ground track
Ground track

The orbit data is extracted from the following two-line orbital elements,

1 20775U 90078B   15029.55148031  .00006378  00000-0  33471-3 0  6193
2 20775 082.9306 037.2290 0627053 127.4129 019.5512 14.21600372224729
Epoch (UTC): 29 January 2015 13:14:07
Eccentricity: 0.0627053
inclination: 82.9306°
perigee height: 368 km
apogee height: 1271 km
right ascension of ascending node: 37.2290°
argument of perigee: 127.4129°
revolutions per day: 14.21600372
mean anomaly at epoch: 19.5512°
orbit number at epoch: 22472

The dashed part of the orbit path shows where the satellite is in the earth's shadow,  

DLR